This demonstration page uses our WeatherBlox Daily Observations layout. Learn more.

39.92423, -83.80882

Hourly Observations for December 22, 2018

Temp ( °F °C ) Dew Point ( °F °C ) Humidity (%) Winds ( mph kmh ) Pressure ( in mb ) Visibility ( mi km ) Precip ( " mm )
12:56 am 00:56 Cloudy 34 1.1 31 -0.6 89 89 WNW 15 24 29.71 1006 10 16.0934 0 0
1:56 am 01:56 Cloudy 34 1.1 31 -0.6 89 89 WNW 16 26 29.74 1007 10 16.0934 0 0.0254
2:56 am 02:56 Cloudy 34 1.1 30 -1.1 85 85 WNW 20 31 29.78 1009 10 16.0934 0 0
3:56 am 03:56 Cloudy 33 0.6 31 -0.6 92 92 WNW 18 30 29.81 1010 10 16.0934 0 0
4:56 am 04:56 Cloudy 33 0.6 31 -0.6 92 92 W 15 24 29.84 1011 10 16.0934 0 0
5:04 am 05:04 Cloudy 32 0 30 -1 93 93 W 20 31 29.88 1012 9 14.48406 0 0
6:56 am 06:56 Cloudy 32 0 30 -1.1 92 92 W 13 20 29.9 1012 9 14.48406 0 0
7:04 am 07:04 Cloudy 32 0 30 -1 93 93 W 14 22 29.94 1014 9 14.48406 0 0
7:56 am 07:56 Cloudy N/A N/A N/A W 10 17 N/A 9 14.48406 0 0
8:09 am 08:09 Cloudy 32 0 30 -1 93 93 W 14 22 29.97 1015 9 14.48406 0 0
8:56 am 08:56 Cloudy 32 0 30 -1.1 92 92 W 15 24 29.98 1015 10 16.0934 0 0
9:56 am 09:56 Cloudy 32 0 29 -1.7 88 88 W 13 20 30.02 1017 10 16.0934 0 0
10:56 am 10:56 Cloudy 31 -0.6 29 -1.7 92 92 W 14 22 30.04 1017 10 16.0934 0 0
11:56 am 11:56 Cloudy 31 -0.6 30 -1.1 96 96 WSW 10 17 30.02 1017 10 16.0934 0 0
12:56 pm 12:56 Cloudy 31 -0.6 30 -1.1 96 96 WSW 16 26 30.02 1017 10 16.0934 0 0
1:56 pm 13:56 Cloudy 31 -0.6 30 -1.1 96 96 WSW 15 24 30.03 1017 10 16.0934 0 0
2:31 pm 14:31 Cloudy 32 0 30 -1 93 93 WSW 12 19 30.06 1018 10 16.0934 0 0
2:56 pm 14:56 Cloudy 32 0 30 -1.1 92 92 WSW 12 19 30.03 1017 10 16.0934 0 0
3:56 pm 15:56 Cloudy 33 0.6 30 -1.1 89 89 WSW 9 15 30.04 1017 10 16.0934 0 0
4:26 pm 16:26 Cloudy 34 1 28 -2 81 81 SW 7 11 30.06 1018 10 16.0934 0 0
4:41 pm 16:41 Cloudy 34 1 30 -1 87 87 SW 8 13 30.06 1018 10 16.0934 0 0
4:56 pm 16:56 Cloudy 33 0.6 29 -1.7 85 85 SSW 8 13 30.05 1018 10 16.0934 0 0
5:07 pm 17:07 Cloudy 34 1 28 -2 81 81 SW 9 15 30.09 1019 10 16.0934 0 0
5:56 pm 17:56 Cloudy 33 0.6 29 -1.7 85 85 SW 9 15 30.08 1019 10 16.0934 0 0
6:53 pm 18:53 Mostly Clear 32 0 28 -2 87 87 SSW 3 6 30.12 1020 10 16.0934 0 0
6:56 pm 18:56 Mostly Clear 32 0 29 -1.7 88 88 SSW 3 6 30.1 1019 10 16.0934 0 0
7:56 pm 19:56 Clear 31 -0.6 29 -1.7 92 92 SSE 6 9 30.12 1020 10 16.0934 0 0
8:56 pm 20:56 Clear 31 -0.6 29 -1.7 92 92 SSE 5 7 30.09 1019 10 16.0934 0 0
9:56 pm 21:56 Clear 31 -0.6 30 -1.1 96 96 SSE 5 7 30.1 1019 10 16.0934 0 0
10:56 pm 22:56 Clear 32 0 30 -1.1 92 92 S 6 9 30.11 1020 10 16.0934 0 0
11:56 pm 23:56 Clear 32 0 30 -1.1 92 92 SSW 5 7 30.11 1020 10 16.0934 0 0

Powered by AerisWeather